Location: Ar Ranvel
(48.3000°N, 4.8833°W)
Time: 00:05:39
(UTC+00:00)

FALCON 9 DEB - Pass Details

Date: 30 October 2021
Orbit: 417 x 427 km, 53.0° (Epoch: 28 November)

Event Time Altitude Azimuth Distance (km) Brightness Sun altitude
Rises 18:31:08 0° 247° (WSW) 2,391 8.3 -15.0°
Reaches altitude 10° 18:33:15 10° 248° (WSW) 1,527 7.1 -15.4°
Maximum altitude 18:36:41 78° 336° (NNW) 445 3.1 -16.0°
Enters shadow 18:37:58 36° 56° (ENE) 706 3.7 -16.2°
